Location: Newark
(21.1700°N, 79.6500°E)
Time: 03:01:55
(UTC+00:00)

Envisat - Visible Passes

Search period start: 12 December 2019 00:00
Search period end: 22 December 2019 00:00
Orbit: 764 x 766 km, 98.1° (Epoch: 11 December)

Date Brightness Start Highest point End Pass type
(mag) Time Alt. Az. Time Alt. Az. Time Alt. Az.
12 Dec 6.1 00:15:39 10° ENE 00:18:34 15° E 00:21:29 10° SE visible
12 Dec 3.0 12:56:10 10° S 13:01:14 85° W 13:06:19 10° NNW visible
13 Dec 3.5 12:20:00 10° SE 12:24:36 36° ENE 12:29:12 10° N visible
13 Dec 5.9 14:00:35 10° SW 14:03:33 16° W 14:06:33 10° WNW visible
14 Dec 5.2 00:39:41 10° NE 00:44:07 31° E 00:48:33 10° SSE visible
14 Dec 4.3 13:21:57 10° S 13:26:43 41° W 13:31:29 10° NNW visible
15 Dec 6.4 00:05:49 10° E 00:07:14 11° E 00:08:40 10° ESE visible
15 Dec 2.9 12:44:57 10° SSE 12:49:59 73° ENE 12:55:02 10° N visible
16 Dec 5.5 13:48:29 10° SW 13:52:14 21° W 13:56:01 10° NW visible
17 Dec 5.7 00:28:51 10° NE 00:32:50 23° E 00:36:47 10° SSE visible
17 Dec 3.7 13:10:28 10° S 13:15:26 56° W 13:20:24 10° NNW visible
18 Dec 3.1 12:33:49 10° SSE 12:38:44 54° ENE 12:43:40 10° N visible
19 Dec 5.1 13:36:39 10° SSW 13:40:56 28° W 13:45:15 10° NW visible
20 Dec 6.0 00:18:14 10° ENE 00:21:31 17° E 00:24:47 10° SE visible
20 Dec 3.2 12:59:06 10° S 13:04:09 76° WSW 13:09:14 10° NNW visible
21 Dec 3.4 12:22:48 10° SE 12:27:30 40° ENE 12:32:13 10° N visible
21 Dec 6.1 14:03:57 10° SW 14:06:30 14° W 14:09:03 10° WNW visible
